[[{"header":{"parameterUnit":"m.s-1","parameterCategory":1,"la1":30.2991,"la2":30.254,"lo1":-89.0895,"lo2":-89.0444,"dy":0.0017,"dx":0.0017,"nx":28,"ny":28,"refTime":"2025-06-19T09:00:00:Z","depth":0,"parameterNumber":2,"parameterNumberName":"U-component_of_WINDS"},"data":[0,0,0,0,0,0,0,0,0,0,0,0,0,0,0,0,0,0,0,0,0,0,0,0,0,0,0,0,0,0,0,0,0,0,0,0,0,0,0,0,0,0,0,0,0,0,0,0,0,0,0,0,0,0,0,0,0,0,2.1791,2.1791,0,2.183,2.1831,2.1831,2.1845,2.1844,2.1844,2.1844,2.1886,2.1887,2.1888,0,0,0,0,0,0,0,0,0,0,0,0,0,2.1727,2.1729,2.1791,2.1791,2.1792,2.183,2.1831,2.1831,2.1845,2.1844,2.1844,2.1844,2.1885,2.1887,2.1888,0,0,0,0,0,0,0,0,0,0,0,0,0,2.176,2.1729,2.179,2.1803,2.1804,2.183,2.1831,2.1831,2.1845,2.1844,2.1844,2.1844,2.1885,2.1887,2.1888,2.1905,0,0,2.1894,2.1895,0,0,0,0,0,0,0,0,2.1758,2.1762,2.1801,2.1802,2.1804,2.1832,2.1824,2.1856,2.1845,2.1829,2.1844,2.1844,2.1868,2.1871,2.1879,2.1907,2.1909,2.1894,2.1896,2.1896,2.1897,0,0,0,0,0,0,0,2.1756,2.176,2.1806,2.1801,2.1803,2.1807,2.1811,2.183,2.185,2.1831,2.1832,2.1836,2.1869,2.1878,2.188,2.1909,2.1894,2.1896,2.1897,2.1898,2.1952,2.1952,0,0,0,0,0,0,2.1751,2.1758,2.1805,2.1807,2.178,2.1808,2.1813,2.1823,2.185,2.1853,2.1836,2.1837,2.1874,2.1878,2.1882,2.1903,2.1896,2.1898,2.1899,2.1951,2.1952,2.1952,0,0,0,0,0,0,2.175,2.1755,2.1803,2.1783,2.179,2.1809,2.1821,2.1824,2.1833,2.1854,2.1857,2.1841,2.1874,2.1879,2.1899,2.1904,2.1899,2.1901,2.1951,2.1951,2.1952,2.1944,0,0,0,0,0,0,2.1748,2.1755,2.1761,2.1783,2.1791,2.1819,2.1821,2.1825,2.1836,2.1837,2.1859,2.1863,2.1875,2.1896,2.1901,2.1907,2.1902,2.1951,2.1951,2.1952,2.1944,2.1944,2.1944,0,0,0,0,0,2.1746,2.1757,2.1761,2.1767,2.1799,2.182,2.1824,2.1837,2.1836,2.1843,2.1856,2.1862,2.1903,2.1898,2.1903,2.191,2.195,2.1951,2.1952,2.1944,2.1944,2.1944,0,0,0,0,0,0,2.1736,2.1761,2.1765,2.1784,2.18,2.1822,2.1831,2.1837,2.1853,2.1853,2.1868,2.1873,2.1892,2.1903,2.1897,2.1927,2.1927,2.1929,2.1919,2.1919,2.192,2.1917,2.1904,0,0,0,0,0,2.1736,2.175,2.1771,2.1786,2.1794,2.1811,2.182,2.1829,2.1846,2.1852,2.1867,2.1883,2.19,2.191,2.1926,2.1945,2.195,2.1953,2.1953,2.1953,2.1954,2.1965,2.1966,2.1954,2.1954,2.1954,0,0,2.1736,2.1751,2.176,2.1785,2.1798,2.1813,2.1816,2.1832,2.1843,2.1855,2.1874,2.1885,2.1904,2.1924,2.1933,2.1933,2.1959,2.1954,2.1954,2.1955,2.1966,2.1967,2.1968,2.1955,2.1954,2.1954,0,0,2.1744,2.1757,2.1771,2.1784,2.1803,2.1814,2.1817,2.1839,2.1846,2.1866,2.1875,2.1888,2.1916,2.1929,2.194,2.1952,2.1958,2.1957,2.1958,2.1968,2.1969,2.197,2.1974,2.1976,2.1958,2.1958,2.1958,0,2.1742,2.1765,2.1778,2.1793,2.1803,2.1814,2.1828,2.184,2.1863,2.1871,2.1871,2.1906,2.1919,2.1942,2.1944,2.1953,2.1957,2.1955,2.1968,2.1969,2.197,2.1974,2.1976,2.1958,2.1958,2.1958,2.1958,0,2.1761,2.1777,2.1786,2.1808,2.1819,2.1834,2.1849,2.1859,2.1867,2.1878,2.1897,2.1914,2.1933,2.1939,2.1947,2.1962,2.1962,2.1965,2.1965,2.1971,2.1975,2.1977,2.1958,2.1958,2.1958,2.1958,0,0,2.1765,2.1793,2.1796,2.1806,2.1828,2.184,2.1855,2.1874,2.1882,2.1898,2.1911,2.1934,2.1937,2.1948,2.1957,2.1966,2.1974,2.1968,2.1969,2.1968,2.1993,2.199,2.1992,2.1979,2.1979,2.1979,2.1991,0,2.1776,2.1803,2.1814,2.1836,2.185,2.186,2.1873,2.1888,2.1898,2.1912,2.1924,2.194,2.1942,2.1949,2.1958,2.1971,2.198,2.1971,2.1991,2.1991,2.1986,2.1994,2.1992,2.2002,2.1993,2.1993,2.1993,0,2.1792,2.1808,2.183,2.185,2.1856,2.1868,2.1885,2.1899,2.1915,2.1922,2.1935,2.1943,2.196,2.1958,2.1981,2.1975,2.1983,2.1991,2.1992,2.1994,2.1993,2.1997,2.2006,2.2007,2.1996,2.1996,2.1995,0,2.1792,2.1819,2.1836,2.1844,2.1867,2.1875,2.1885,2.1901,2.1912,2.1927,2.1934,2.1952,2.1961,2.1974,2.1987,2.1985,2.2008,2.2008,2.2015,2.2014,2.2019,2.2019,2.203,2.2025,2.2025,2.2025,2.2025,0,2.1803,2.1817,2.1836,2.1846,2.1862,2.1875,2.189,2.1901,2.1915,2.1928,2.1938,2.1949,2.1966,2.1979,2.199,2.2006,2.2011,2.2017,2.202,2.2016,2.2015,2.2022,2.2022,2.2025,2.2025,2.2025,2.2025,0,2.1806,2.1819,2.1838,2.1859,2.1864,2.1874,2.1892,2.1902,2.1913,2.1929,2.1934,2.1951,2.1967,2.1981,2.2004,2.201,2.2028,2.2031,2.2022,2.2023,2.2029,2.2028,2.2044,2.2047,2.204,2.204,2.204,0,2.1812,2.1823,2.1844,2.1853,2.1863,2.1877,2.1888,2.1901,2.1911,2.1931,2.1939,2.1956,2.1971,2.1997,2.2012,2.2029,2.2032,2.2037,2.2035,2.2031,2.2032,2.2031,2.2032,2.2037,2.2037,2.2037,2.2037,0,2.1822,2.1828,2.1842,2.1859,2.1871,2.1884,2.1898,2.1905,2.1921,2.1932,2.1949,2.1961,2.1983,2.2,2.2018,2.2029,2.2036,2.2037,2.204,2.2036,2.2031,2.2034,2.2022,2.2037,2.2037,2.2037,2.2037,2.2037,2.1827,2.1836,2.1852,2.1868,2.188,2.1892,2.1903,2.1915,2.1929,2.1948,2.1955,2.1972,2.1989,2.2014,2.2024,2.2038,2.2039,2.2042,2.2043,2.2044,2.2043,2.2028,2.2042,2.2042,2.2042,2.2042,2.2042,0,2.1836,2.1847,2.1861,2.188,2.1892,2.1897,2.1913,2.1923,2.1938,2.1952,2.1966,2.1985,2.2002,2.2017,2.2034,2.2042,2.2046,2.2046,2.2046,2.2048,2.2042,2.2038,2.2043,2.2043,2.2043,2.2043,2.2043,2.2043,2.1843,2.1859,2.1867,2.1889,2.19,2.1917,2.1925,2.1937,2.1948,2.1969,2.1983,2.1993,2.2007,2.2026,2.2041,2.2045,2.2051,2.2051,2.2056,2.2049,2.2049,2.2048,2.2045,2.2052,2.2052,2.2061,2.2061,2.2061]},{"header":{"parameterUnit":"m.s-1","parameterCategory":1,"la1":30.2991,"la2":30.254,"lo1":-89.0895,"lo2":-89.0444,"dy":0.0017,"dx":0.0017,"nx":28,"ny":28,"refTime":"2025-06-19T09:00:00:Z","depth":0,"parameterNumber":3,"parameterNumberName":"V-component_of_WINDS"},"data":[0,0,0,0,0,0,0,0,0,0,0,0,0,0,0,0,0,0,0,0,0,0,0,0,0,0,0,0,0,0,0,0,0,0,0,0,0,0,0,0,0,0,0,0,0,0,0,0,0,0,0,0,0,0,0,0,0,0,2.0166,2.0165,0,2.0123,2.0123,2.0122,2.0095,2.0095,2.0095,2.0095,2.0049,2.0048,2.0047,0,0,0,0,0,0,0,0,0,0,0,0,0,2.0223,2.0222,2.0166,2.0165,2.0165,2.0123,2.0123,2.0122,2.0095,2.0095,2.0095,2.0094,2.005,2.0049,2.0047,0,0,0,0,0,0,0,0,0,0,0,0,0,2.0191,2.0221,2.0166,2.0146,2.0144,2.0123,2.0123,2.0122,2.0095,2.0095,2.0095,2.0094,2.005,2.0049,2.0047,2.0042,0,0,2.0042,2.0042,0,0,0,0,0,0,0,0,2.0193,2.0189,2.015,2.0148,2.0145,2.0114,2.0126,2.0095,2.0095,2.0114,2.0095,2.0094,2.0071,2.0068,2.006,2.004,2.0038,2.0042,2.0041,2.0041,2.004,0,0,0,0,0,0,0,2.0195,2.019,2.0149,2.0149,2.0146,2.0139,2.0134,2.012,2.0094,2.0112,2.011,2.0105,2.007,2.0062,2.0059,2.0037,2.0042,2.0041,2.004,2.0039,2.001,2.0011,0,0,0,0,0,0,2.02,2.0192,2.015,2.0148,2.0169,2.0138,2.0133,2.0124,2.0094,2.009,2.0106,2.0104,2.0065,2.0061,2.0057,2.0049,2.0041,2.0039,2.0038,2.001,2.001,2.0011,0,0,0,0,0,0,2.0202,2.0197,2.0152,2.0169,2.0163,2.0138,2.0128,2.0124,2.0116,2.0089,2.0085,2.0102,2.0064,2.006,2.0046,2.0047,2.0038,2.0037,2.001,2.001,2.001,2.0033,0,0,0,0,0,0,2.0203,2.0197,2.0196,2.017,2.0162,2.0142,2.0128,2.0123,2.0113,2.0111,2.0085,2.0081,2.0064,2.0049,2.0045,2.0045,2.0036,2.001,2.001,2.001,2.0032,2.0034,2.0035,0,0,0,0,0,2.0205,2.0203,2.0196,2.0191,2.016,2.0142,2.0138,2.0119,2.0113,2.0111,2.0094,2.0081,2.0048,2.0047,2.0043,2.0042,2.001,2.001,2.001,2.0031,2.0033,2.0035,0,0,0,0,0,0,2.023,2.02,2.0191,2.018,2.0164,2.0138,2.0134,2.0122,2.0107,2.0105,2.0082,2.0077,2.0065,2.0053,2.0053,2.0036,2.0027,2.0027,2.0044,2.0046,2.0048,2.0051,2.0034,0,0,0,0,0,2.0234,2.0223,2.0197,2.019,2.0182,2.016,2.0151,2.0138,2.012,2.0113,2.0095,2.0078,2.0063,2.0054,2.0039,2.003,2.0023,2.0027,2.0029,2.0031,2.003,2.0024,2.0025,2.0012,2.0012,2.0012,0,0,2.0242,2.0224,2.0219,2.0194,2.018,2.0169,2.0154,2.0142,2.0133,2.0111,2.0097,2.0084,2.0063,2.0051,2.0045,2.004,2.0032,2.0031,2.0033,2.0031,2.0024,2.0025,2.0026,2.0012,2.0012,2.0012,0,0,2.0251,2.0237,2.023,2.0216,2.0195,2.018,2.0178,2.0153,2.0144,2.0129,2.0113,2.0101,2.0077,2.0062,2.0052,2.0056,2.0043,2.0052,2.0061,2.0055,2.0055,2.0056,2.0057,2.0058,2.0052,2.0052,2.0052,0,2.0264,2.0246,2.0227,2.0216,2.0206,2.0186,2.0178,2.0165,2.014,2.0133,2.0128,2.0097,2.0082,2.0066,2.0067,2.006,2.0056,2.0054,2.0057,2.0058,2.0058,2.0058,2.0059,2.0053,2.0053,2.0052,2.0052,0,2.0263,2.0251,2.0247,2.0224,2.0213,2.0204,2.0183,2.0174,2.0162,2.0148,2.0133,2.0114,2.0095,2.009,2.0078,2.0073,2.007,2.0062,2.0052,2.0061,2.0061,2.0061,2.0054,2.0054,2.0054,2.0053,0,0,2.0285,2.0252,2.0251,2.024,2.0215,2.0205,2.0195,2.0176,2.0169,2.0153,2.0143,2.0123,2.0115,2.0103,2.0089,2.0084,2.0087,2.0075,2.0075,2.0078,2.0079,2.0085,2.0086,2.0079,2.0079,2.0079,2.0081,0,2.029,2.0271,2.0253,2.024,2.0228,2.0209,2.02,2.0184,2.017,2.0157,2.0142,2.0128,2.0118,2.0111,2.0105,2.0088,2.0087,2.0088,2.0069,2.0068,2.0074,2.0086,2.0092,2.0095,2.008,2.008,2.008,0,2.0293,2.0278,2.0263,2.024,2.0234,2.0226,2.0208,2.0196,2.0177,2.0168,2.0155,2.014,2.0128,2.0121,2.0103,2.0104,2.0095,2.0086,2.0085,2.0082,2.0074,2.0082,2.0095,2.0095,2.008,2.008,2.008,0,2.031,2.0286,2.0274,2.0265,2.0238,2.0232,2.0221,2.0201,2.0191,2.0175,2.0168,2.0151,2.0141,2.0128,2.0109,2.0106,2.0093,2.0084,2.0084,2.0084,2.0081,2.0081,2.0092,2.0077,2.0077,2.0077,2.0077,0,2.0316,2.0308,2.0281,2.0274,2.0264,2.0244,2.0234,2.0221,2.0204,2.0193,2.0176,2.0166,2.0142,2.0129,2.0115,2.0102,2.0098,2.0089,2.0085,2.009,2.0091,2.0083,2.0082,2.0077,2.0077,2.0077,2.0077,0,2.0333,2.0315,2.03,2.0276,2.0269,2.0263,2.0241,2.0233,2.0219,2.0205,2.0201,2.0178,2.0162,2.0142,2.012,2.011,2.0098,2.0093,2.0105,2.0102,2.0103,2.0103,2.0108,2.0107,2.0094,2.0094,2.0094,0,2.0338,2.0331,2.0306,2.0298,2.0287,2.0274,2.0264,2.0244,2.0234,2.0211,2.0206,2.0189,2.0174,2.0149,2.013,2.0113,2.0106,2.0109,2.0103,2.0108,2.0105,2.0105,2.0104,2.011,2.0111,2.0111,2.0111,0,2.0349,2.034,2.0326,2.0309,2.0298,2.0283,2.0268,2.0262,2.0239,2.0229,2.0212,2.0201,2.0178,2.0161,2.0141,2.0129,2.0116,2.0113,2.0112,2.0117,2.0124,2.0119,2.0108,2.0113,2.0113,2.0113,2.0113,2.0112,2.0359,2.0352,2.0333,2.0318,2.0305,2.0291,2.0282,2.0267,2.0253,2.0233,2.0222,2.0206,2.0187,2.0159,2.0147,2.0134,2.0129,2.0127,2.0127,2.0127,2.0128,2.0127,2.013,2.013,2.013,2.013,2.013,0,2.0368,2.0355,2.0342,2.0321,2.0309,2.0299,2.0282,2.0272,2.0259,2.0242,2.0228,2.0209,2.0193,2.0172,2.0154,2.0148,2.0141,2.0143,2.0143,2.014,2.0133,2.0136,2.0149,2.0149,2.0149,2.0149,2.0149,2.0149,2.0371,2.0359,2.0348,2.0328,2.0315,2.03,2.0291,2.0278,2.0264,2.0244,2.0231,2.0218,2.0199,2.018,2.0164,2.0159,2.0152,2.0156,2.0149,2.0143,2.0141,2.0139,2.0141,2.0155,2.0155,2.0157,2.0157,2.0157]}]]